XAR weather

Aribinda Airport
Aribinda, Soum, Burkina Faso

Public forecast

Using degrees Celsius for public forecast. Weather courtesy of forecast.io.

Closest aviation weather report (METAR) to Aribinda Airport

Report is more than 6 hours old.

Closest report is Dori Airport, 50.7 nm (93.9 km) ESE. Retrieved 2009/09/21 17:00 UTC (10 years ago):

DFEE 211700Z 14002KT 9/9 FEW020 BKN260 34/21

Closest aviation forecast (TAF) to Aribinda Airport

Closest forecast is Ouagadougou Airport, 117.8 nm (218.2 km) SSW. Retrieved 2020/02/18 06:00 UTC (3 hours ago):

TAF DFFD 180500Z 1806/1912 08010KT CAVOK TEMPO 1806/1809 4000 HZ